Newport News, VA

11:25 AM EDT on August 22, 2017 (GMT -0400)
Newport News-Williamsburg International

Weather History for KPHF - April, 2013

Change the Weather History Date:

Wednesday, April 3, 2013

  Actual Average Record
Temperature  
Mean Temperature 47 °F -  
Max Temperature 59 °F 68 °F 88 °F (1963)
Min Temperature 37 °F 45 °F 32 °F (1966)
Degree Days  
Heating Degree Days 18    
Moisture  
Dew Point 22 °F    
Average Humidity 42    
Maximum Humidity 71    
Minimum Humidity 17    
Precipitation  
Precipitation 0.00 in - - ()
Sea Level Pressure  
Sea Level Pressure 30.25 in    
Wind  
Wind Speed 7 mph (North)    
Max Wind Speed 14 mph    
Max Gust Speed 26 mph    
Visibility 10 miles    
Events      
Averages and records for this station are not official NWS values.
T = Trace of Precipitation, MM = Missing Value Source: NWS Daily Summary

Daily Weather History Graph

Daily Weather History Graph

Search for Another Location

Airport or City:

Trip Planner

Search our weather history database for the weather conditions in past years. The results will help you decide how hot, cold, wet, or windy it might be!

Date:

Astronomy

Apr. 03, 2013 Rise Set
Actual Time 6:48 AM EDT 7:30 PM EDT
Civil Twilight 6:22 AM EDT 7:56 PM EDT
Nautical Twilight 5:51 AM EDT 8:27 PM EDT
Astronomical Twilight 5:19 AM EDT 8:59 PM EDT
Moon 2:18 AM EDT (4/3) 12:48 PM EDT (4/3)
Length of Visible Light 13h 34m
Length of Day
12h 42m
Last Quarter, 45% of the Moon is Illuminated
Apr 3
Last Quarter
Apr 10
New
Apr 18
First Quarter
Apr 25
Full
May 2
Last Quarter

Hourly Weather History & Observations

Time (EDT) Temp. Windchill Dew Point Humidity Pressure Visibility Wind Dir Wind Speed Gust Speed Precip Events Conditions
12:54 AM 43.0 °F 38.8 °F 34.0 °F 71% 30.16 in 10.0 mi NNE 6.9 mph - N/A   Clear
1:54 AM 43.0 °F 39.5 °F 27.0 °F 53% 30.19 in 10.0 mi NNE 5.8 mph - N/A   Clear
2:54 AM 41.0 °F 37.1 °F 26.1 °F 55% 30.19 in 10.0 mi North 5.8 mph - N/A   Scattered Clouds
3:54 AM 39.9 °F 37.8 °F 26.1 °F 58% 30.20 in 10.0 mi North 3.5 mph - N/A   Overcast
4:54 AM 37.9 °F 34.4 °F 27.0 °F 65% 30.21 in 10.0 mi North 4.6 mph - N/A   Overcast
5:54 AM 39.0 °F 35.7 °F 27.0 °F 62% 30.22 in 10.0 mi NNE 4.6 mph - N/A   Overcast
6:54 AM 39.0 °F 36.8 °F 28.9 °F 67% 30.25 in 10.0 mi NNE 3.5 mph - N/A   Overcast
7:54 AM 39.9 °F 36.7 °F 30.0 °F 68% 30.26 in 10.0 mi NNE 4.6 mph - N/A   Clear
8:54 AM 46.0 °F 42.5 °F 27.0 °F 47% 30.28 in 10.0 mi NNE 6.9 mph - N/A   Partly Cloudy
9:54 AM 48.9 °F - 18.0 °F 29% 30.28 in 10.0 mi NE 9.2 mph - N/A   Clear
10:54 AM 51.1 °F - 16.0 °F 25% 30.28 in 10.0 mi NNE 5.8 mph - N/A   Clear
11:54 AM 53.1 °F - 16.0 °F 23% 30.28 in 10.0 mi Variable 6.9 mph - N/A   Clear
12:54 PM 53.1 °F - 16.0 °F 23% 30.25 in 10.0 mi WNW 13.8 mph 18.4 mph N/A   Clear
1:54 PM 55.0 °F - 12.9 °F 19% 30.22 in 10.0 mi West 9.2 mph 17.3 mph N/A   Clear
2:54 PM 57.0 °F - 12.9 °F 18% 30.21 in 10.0 mi WNW 12.7 mph 26.5 mph N/A   Clear
3:54 PM 57.9 °F - 15.1 °F 19% 30.19 in 10.0 mi NW 12.7 mph 20.7 mph N/A   Clear
4:54 PM 57.9 °F - 12.9 °F 17% 30.21 in 10.0 mi West 13.8 mph 19.6 mph N/A   Clear
5:54 PM 57.0 °F - 12.0 °F 17% 30.22 in 10.0 mi WNW 11.5 mph - N/A   Clear
6:54 PM 55.0 °F - 12.0 °F 18% 30.23 in 10.0 mi WNW 8.1 mph - N/A   Clear
7:54 PM 46.9 °F - 30.0 °F 52% 30.26 in 10.0 mi East 9.2 mph - N/A   Clear
8:54 PM 43.0 °F 38.2 °F 30.0 °F 60% 30.29 in 10.0 mi ENE 8.1 mph - N/A   Clear
9:54 PM 44.1 °F 40.1 °F 30.9 °F 60% 30.33 in 10.0 mi ENE 6.9 mph - N/A   Clear
10:54 PM 46.9 °F - 21.9 °F 37% 30.35 in 10.0 mi NE 12.7 mph 19.6 mph N/A   Clear
11:54 PM 46.0 °F 42.5 °F 19.9 °F 35% 30.38 in 10.0 mi NE 6.9 mph 16.1 mph N/A   Clear